Regional Weather Roundup
Issued by NWS

Home | Current Version | Previous Version | Graphics & Text | Print | Product List | Glossary On
Versions: 1 2 3 4 5 6 7 8 9 10 11 12 13 14 15 16 17 18 19 20 21 22 23 24 25 26 27 28 29 30 31 32 33 34 35 36 37 38 39 40 41 42 43 44 45 46 47 48 49 50
992
ASUS44 KJAN 270603
RWRMS

MISSISSIPPI HOURLY WEATHER ROUNDUP
NATIONAL WEATHER SERVICE JACKSON MS
100 AM CDT FRI MAR 27 2015

NOTE: "FAIR: INDICATES FEW OR NO CLOUDS BELOW 12,000 FEET WITH NO
SIGNIFICANT WEATHER AND/OR OBSTRUCTIONS TO VISIBILITY.

MSZ001>002-007>008-010>013-018>021-025>028-034>036-270700-
NORTHWEST MISSISSIPPI

CITY           SKY/WX    TMP DP  RH WIND       PRES   REMARKS
CLARKSDALE       N/A     41  39  93 NE7       30.08S
CLEVELAND      FAIR      42  42  99 N5        30.07S
GREENWOOD      PTCLDY    45  36  70 N13G22    30.06S
6HR MIN TEMP:  45; 6HR MAX TEMP:  52; 6HR PCP:  0.01;

GREENVILLE     CLEAR     43  39  86 N5        30.06F
6HR MIN TEMP:  43; 6HR MAX TEMP:  50; 6HR PCP: TRACE;

OLIVE BRANCH   CLEAR     36  36 100 N3        30.06S
OXFORD         FAIR      39  36  87 N5        30.07R
TUNICA         CLEAR     39  36  87 N3        30.07F
$$

MSZ003>006-009-014>017-022>024-029>033-037>039-270700-
NORTHEAST MISSISSIPPI

CITY           SKY/WX    TMP DP  RH WIND       PRES   REMARKS
COLUMBUS AFB   CLOUDY    46  43  87 N10G21    29.98F
CORINTH        CLOUDY    43  36  75 N7        30.01F
GOLDN TRIANGLE CLOUDY    46  41  81 N12G22    29.98F
STARKVILLE     CLOUDY    45  43  93 N10G17    30.00S
TUPELO         CLOUDY    45  40  82 N10       30.02R
6HR MIN TEMP:  45; 6HR MAX TEMP:  48; 6HR PCP:  0.07;

$$

MSZ040-058-270700-
CENTRAL MISSISSIPPI

CITY           SKY/WX    TMP DP  RH WIND       PRES   REMARKS
JACKSON INTL   CLOUDY    49  44  83 N20G28    30.01S
6HR MIN TEMP:  49; 6HR MAX TEMP:  53; 6HR PCP:  0.02;

JACKSON HAWKNS CLOUDY    49  43  80 N8        30.02S
6HR MIN TEMP:  49; 6HR MAX TEMP:  54; 6HR PCP: TRACE;

MERIDIAN KEY   CLOUDY    49  46  90 N15       29.95S
6HR MIN TEMP:  49; 6HR MAX TEMP:  68; 6HR PCP: TRACE;

MERIDIAN NAS   NOT AVBL
RAYMOND        CLOUDY    50  45  81 N10G20    30.02F
VICKSBURG      PTCLDY    49  40  71 N12       30.06S
6HR MIN TEMP:  49; 6HR MAX TEMP:  53; 6HR PCP:  0.01;

$$

MSZ059>079-270700-
SOUTH MISSISSIPPI

CITY           SKY/WX    TMP DP  RH WIND       PRES   REMARKS
BROOKHAVEN     CLOUDY    50  48  93 NW7G17    30.02R
HATTIESBURG    CLOUDY    56  51  84 NW9G18    29.93F
6HR MIN TEMP:  56; 6HR MAX TEMP:  67; 6HR PCP:  0.01;

MCCOMB         CLOUDY    52  46  80 N13G23    29.99R
6HR MIN TEMP:  52; 6HR MAX TEMP:  66; 6HR PCP:  0.01;

NATCHEZ        CLOUDY    50  43  76 N13       30.04S
6HR MIN TEMP:  50; 6HR MAX TEMP:  55;

PINE BELT      CLOUDY    54  46  76 NW13G20   29.94F
6HR MIN TEMP:  54; 6HR MAX TEMP:  64;

$$

MSZ080>082-270700-
COASTAL MISSISSIPPI

CITY           SKY/WX    TMP DP  RH WIND       PRES   REMARKS
BILOXI         CLOUDY    61  61 100 NW15G21   29.87S
PASCAGOULA     CLOUDY    64  60  87 W8        29.86S
6HR MIN TEMP:  62; 6HR MAX TEMP:  67;

GULFPORT       CLOUDY    60  57  89 N15       29.89R
6HR MIN TEMP:  60; 6HR MAX TEMP:  66; 6HR PCP: TRACE;

$$



USA.gov is the U.S. government's official web portal to all federal, state and local government web resources and services.